Tiempo atmosférico en la estación meteorológica de Tijarafe, Santa Cruz de Tenerife (733 m.)



Fecha
DESCASC
Temp. máxima en grados centígrados (hora)
DESCASC
Temp. mínima en grados centígrados (hora)
DESCASC
Temp. media en grados centígrados
DESCASC
Racha de viento máxima en m/sg (hora)
DESCASC
Velocidad máxima media en intervalos de 10 minutos(hora)
DESCASC
Precipitaciones diarias en mm
DESCASC
Precipitaciones de 00:00 a 06:00 en mm
DESCASC
Precipitaciones de 06:00 a 12:00 en mm
DESCASC
Precipitaciones de 12:00 a 18:00 en mm
DESCASC
Precipitaciones de 18:00 a 24:00 en mm
DESCASC
18-08-2019 36.2 (17:10) 29.5 (06:00) 32.9 5.28 (18:10) 3.33 (04:20) 0 0 0 0 0
17-08-2019 36.5 (17:20) 27.2 (09:00) 31.9 7.22 (14:00) 5 (14:00) 0 0 0 0 0
16-08-2019 33.2 (15:50) 21.1 (00:30) 27.2 6.39 (11:20) 3.06 (13:50) 0 0 0 0 0
15-08-2019 26.8 (18:50) 17.8 (00:00) 22.3 5.28 (05:40) 3.89 (05:50) 0 0 0 0 0
14-08-2019 23.1 (16:20) 15.2 (00:00) 19.2 8.06 (14:50) 6.11 (01:10) 0 0 0 0 0
13-08-2019 24.5 (13:30) 17 (00:00) 20.8 7.22 (11:10) 4.72 (22:10) 0 0 0 0 0
12-08-2019 25.6 (13:00) 17.6 (00:00) 21.6 6.67 (14:00) 3.61 (22:40) 0 0 0 0 0
11-08-2019 26.8 (16:20) 18.3 (00:00) 22.5 6.67 (18:30) 4.44 (18:30) 0 0 0 0 0
10-08-2019 26.1 (14:20) 19.7 (00:00) 22.9 6.39 (11:00) 4.17 (18:20) 0 0 0 0 0
09-08-2019 28 (11:30) 20.3 (00:00) 24.1 5 (15:20) 2.5 (18:20) 0 0 0 0 0
08-08-2019 25.1 (14:20) 15.4 (00:00) 20.3 5 (17:30) 3.33 (08:50) 0 0 0 0 0
07-08-2019 24 (16:30) 15.1 (00:00) 19.6 7.22 (07:40) 5.56 (07:40) 0 0 0 0 0
06-08-2019 22 (15:40) 16 (00:00) 19 5 (15:40) 3.89 (05:10) 0 0 0 0 0
05-08-2019 24 (16:00) 15.7 (00:00) 19.8 5.83 (16:40) 2.5 (14:30) 0 0 0 0 0
04-08-2019 23.1 (16:20) 15.2 (00:00) 19.2 6.67 (17:40) 3.06 (18:50) 0 0 0 0 0
03-08-2019 23.1 (15:40) 15.1 (00:00) 19.1 7.5 (16:10) 5.28 (04:30) 0 0 0 0 0
02-08-2019 22.6 (17:40) 14.7 (00:00) 18.7 8.89 (15:40) 6.94 (04:50) 0 0 0 0 0
01-08-2019 23.8 (16:10) 14.3 (00:00) 19 7.22 (14:00) 5.56 (08:00) 0 0 0 0 0
31-07-2019 21.9 (13:30) 14.6 (00:00) 18.3 7.78 (06:20) 3.33 (14:50) 0 0 0 0 0
30-07-2019 23.3 (16:20) 16.3 (00:00) 19.8 7.5 (19:10) 3.33 (17:40) 0 0 0 0 0
29-07-2019 24.3 (17:50) 16.2 (00:00) 20.3 8.89 (13:00) 6.39 (13:00) 0.8 0.8 0 0 0
28-07-2019 24.1 (14:10) 16.3 (00:00) 20.2 8.33 (09:10) 6.67 (09:10) 0.4 0 0 0 0.4
27-07-2019 24.5 (15:30) 16.4 (00:00) 20.4 11.67 (18:10) 7.78 (17:50) 0 0 0 0 0
26-07-2019 26.5 (12:10) 18 (00:00) 22.3 7.78 (05:00) 4.72 (01:00) 0 0 0 0 0
25-07-2019 26.1 (18:20) 17.4 (00:00) 21.8 5.28 (16:10) 3.06 (19:50) 0 0 0 0 0
24-07-2019 24.2 (16:40) 15.6 (00:00) 19.9 6.11 (08:20) 4.72 (04:20) 0 0 0 0 0
23-07-2019 23.5 (16:40) 14.3 (00:00) 18.9 8.33 (14:10) 5.83 (10:40) 0 0 0 0 0
22-07-2019 23.8 (15:20) 14.8 (00:00) 19.3 8.61 (06:10) 6.11 (06:10) 0 0 0 0 0
21-07-2019 24.4 (19:20) 15.1 (00:00) 19.8 13.61 (05:10) 10.83 (05:20) 0 0 0 0 0

Gráficas

Temp. máximas Temp. mínimas Temp. medias Precipitaciones Rachas de viento máximas Velocidades máximas media en intervalos de 10 minutos

Datos horarios

Fecha y hora oficial Temperatura (ºC) Velocidad del viento (km/h) Dirección del viento Racha (km/h) Dirección de racha Precipitación (mm) Presión (hPa) Tendencia (hPa) Humedad (%)
2019-08-19 23:00:00 26.4 2 Norte 9 Noroeste 0 -- -- 29
2019-08-19 22:00:00 26.8 5 Norte 13 Nordeste 0 -- -- 24
2019-08-19 21:00:00 28.8 4 Norte 12 Noroeste 0 -- -- 18
2019-08-19 20:00:00 31.8 3 Norte 10 Este 0 -- -- 21
2019-08-19 19:00:00 33 4 Oeste 12 Sur 0 -- -- 20
2019-08-19 18:00:00 33 4 Nordeste 12 Este 0 -- -- 27
2019-08-19 17:00:00 34.6 4 Norte 14 Sudeste 0 -- -- 19
2019-08-19 16:00:00 35.6 4 Nordeste 15 Norte 0 -- -- 20
2019-08-19 15:00:00 34.2 7 Norte 18 Sudeste 0 -- -- 20
2019-08-19 14:00:00 32.5 4 Noroeste 16 Norte 0 -- -- 40
2019-08-19 13:00:00 34 7 Norte 15 Noroeste 0 -- -- 34
2019-08-19 12:00:00 33.4 6 Norte 17 Noroeste 0 -- -- 25
2019-08-19 11:00:00 34.2 6 Norte 14 Noroeste 0 -- -- 17
2019-08-19 10:00:00 32.9 5 Norte 15 Nordeste 0 -- -- 14
2019-08-19 09:00:00 30.8 9 Nordeste 14 Nordeste 0 -- -- 14
2019-08-19 08:00:00 30.8 4 Este 13 Nordeste 0 -- -- 15
2019-08-19 07:00:00 29.5 6 Norte 9 Sudoeste 0 -- -- 15
2019-08-19 06:00:00 29.9 2 Sur 8 Noroeste 0 -- -- 15
2019-08-19 05:00:00 28.8 5 Noroeste 12 Norte 0 -- -- 18
2019-08-19 04:00:00 29.1 5 Norte 11 Sur 0 -- -- 19
2019-08-19 03:00:00 29.3 5 Sur 7 Sur 0 -- -- 19
2019-08-19 02:00:00 30 3 Sudoeste 6 Noroeste 0 -- -- 19
2019-08-19 01:00:00 30.5 4 Sur 7 Sur 0 -- -- 19
2019-08-19 00:00:00 30.5 3 Este 10 Norte 0 -- -- 16
2019-08-18 23:00:00 30.3 5 Nordeste 9 Sudeste 0 -- -- 20
2019-08-18 22:00:00 30.6 4 Sur 8 Sur 0 -- -- 23
2019-08-18 21:00:00 31.4 3 Noroeste 12 Norte 0 -- -- 22
2019-08-18 20:00:00 33.6 5 Este 15 Sudeste 0 -- -- 17
2019-08-18 19:00:00 35.6 4 Este 19 Sur 0 -- -- 18
2019-08-18 18:00:00 34.6 5 Sudeste 10 Oeste 0 -- -- 19
2019-08-18 17:00:00 36.1 6 Norte 15 Noroeste 0 -- -- 21
2019-08-18 16:00:00 35.4 8 Norte 15 Norte 0 -- -- 20
2019-08-18 15:00:00 35.5 4 Noroeste 13 Este 0 -- -- 31
2019-08-18 14:00:00 35.6 2 Norte 10 Norte 0 -- -- 30
2019-08-18 13:00:00 35.9 5 Norte 10 Oeste 0 -- -- 25
2019-08-18 12:00:00 34.4 5 Noroeste 11 Noroeste 0 -- -- 20
2019-08-18 11:00:00 33.1 4 Noroeste 9 Norte 0 -- -- 16
2019-08-18 10:00:00 32.5 4 Norte 10 Sudeste 0 -- -- 15
2019-08-18 09:00:00 32 5 Sur 11 Sudeste 0 -- -- 14
2019-08-18 08:00:00 31.3 4 Nordeste 8 Noroeste 0 -- -- 15
2019-08-18 07:00:00 30.4 3 Oeste 12 Nordeste 0 -- -- 17
2019-08-18 06:00:00 29.5 7 Norte 12 Nordeste 0 -- -- 19
2019-08-18 05:00:00 30.1 7 Norte 14 Norte 0 -- -- 19
2019-08-18 04:00:00 29.6 8 Norte 11 Nordeste 0 -- -- 23
2019-08-18 03:00:00 31.7 3 Norte 14 Sudeste 0 -- -- 17
2019-08-18 02:00:00 31.3 0 Calma 10 Nordeste 0 -- -- 17
2019-08-18 01:00:00 31.6 6 Norte 15 Nordeste 0 -- -- 17
2019-08-18 00:00:00 31 11 Norte 13 Nordeste 0 -- -- 19
2019-08-17 23:00:00 31.6 7 Norte 10 Sudeste 0 -- -- 19
2019-08-17 22:00:00 31.1 3 Sudoeste 9 Sudeste 0 -- -- 21
2019-08-17 21:00:00 32.6 4 Sudeste 8 Sudeste 0 -- -- 27
2019-08-17 20:00:00 35.4 6 Norte 16 Norte 0 -- -- 18
2019-08-17 19:00:00 35.9 9 Norte 15 Noroeste 0 -- -- 24
2019-08-17 18:00:00 36.2 8 Norte 14 Norte 0 -- -- 16
2019-08-17 17:00:00 35.5 9 Norte 13 Norte 0 -- -- 25
2019-08-17 16:00:00 34.5 9 Norte 17 Norte 0 -- -- 28
2019-08-17 15:00:00 34.9 13 Norte 25 Norte 0 -- -- 20
2019-08-17 14:00:00 33.2 18 Norte 26 Norte 0 -- -- 21
2019-08-17 13:00:00 33.5 6 Norte 11 Sudeste 0 -- -- 31
2019-08-17 12:00:00 34.4 4 Este 19 Sudeste 0 -- -- 28
2019-08-17 11:00:00 33.1 4 Sudeste 10 Sur 0 -- -- 19
2019-08-17 10:00:00 30.8 3 Noroeste 15 Sudeste 0 -- -- 21
2019-08-17 09:00:00 27.2 5 Sudeste 14 Sudeste 0 -- -- 32
2019-08-17 08:00:00 29.7 6 Sur 15 Sur 0 -- -- 22
2019-08-17 07:00:00 30 3 Este 12 Sudeste 0 -- -- 20
2019-08-17 06:00:00 30.4 4 Noroeste 10 Sudeste 0 -- -- 20
2019-08-17 05:00:00 30.8 5 Sudeste 12 Este 0 -- -- 20
2019-08-17 04:00:00 29 7 Sudeste 12 Sudeste 0 -- -- 24
2019-08-17 03:00:00 28.4 6 Sur 13 Sur 0 -- -- 22
2019-08-17 02:00:00 28.8 2 Norte 11 Sur 0 -- -- 20
2019-08-17 01:00:00 28.5 2 Este 9 Sur 0 -- -- 23
2019-08-17 00:00:00 27.9 3 Sudeste 14 Sur 0 -- -- 25
2019-08-16 23:00:00 27.6 4 Sudeste 15 Sur 0 -- -- 27
2019-08-16 22:00:00 27.8 5 Nordeste 14 Sudeste 0 -- -- 27
2019-08-16 21:00:00 28.3 4 Noroeste 12 Sur 0 -- -- 33
2019-08-16 20:00:00 28.5 3 Nordeste 13 Oeste 0 -- -- 47
2019-08-16 19:00:00 29.3 3 Sudeste 11 Sudeste 0 -- -- 43
2019-08-16 18:00:00 30.5 4 Sudeste 16 Sudeste 0 -- -- 26
2019-08-16 17:00:00 30.8 4 Sudeste 14 Sudeste 0 -- -- 30
2019-08-16 16:00:00 32.2 3 Sur 13 Noroeste 0 -- -- 37
2019-08-16 15:00:00 31.9 7 Norte 15 Norte 0 -- -- 28
2019-08-16 14:00:00 29.8 8 Noroeste 18 Norte 0 -- -- 39
2019-08-16 13:00:00 28.4 4 Sudeste 12 Norte 0 -- -- 53
2019-08-16 12:00:00 28.8 5 Norte 23 Sur 0 -- -- 32
2019-08-16 11:00:00 25.3 5 Norte 12 Este 0 -- -- 48
2019-08-16 10:00:00 25.7 0 Calma 10 Sudeste 0 -- -- 36
2019-08-16 09:00:00 23 2 Sudeste 12 Sur 0 -- -- 32
2019-08-16 08:00:00 23.2 4 Noroeste 14 Sudeste 0 -- -- 27
2019-08-16 07:00:00 22.8 3 Sudeste 9 Sudeste 0 -- -- 34
2019-08-16 06:00:00 22.7 2 Este 8 Sudeste 0 -- -- 36
2019-08-16 05:00:00 22.3 3 Nordeste 10 Nordeste 0 -- -- 34
2019-08-16 04:00:00 22.5 4 Norte 13 Sudeste 0 -- -- 39
2019-08-16 03:00:00 22.6 8 Sudeste 14 Sudeste 0 -- -- 40
2019-08-16 02:00:00 21.8 4 Norte 10 Sur 0 -- -- 40
2019-08-16 01:00:00 21.3 3 Nordeste 8 Nordeste 0 -- -- 46
2019-08-16 00:00:00 21.8 3 Nordeste 11 Sudeste 0 -- -- 54
2019-08-15 23:00:00 22.3 4 Sudeste 10 Sur 0 -- -- 56
2019-08-15 22:00:00 21.8 0 Calma 6 Sudeste 0 -- -- 62
2019-08-15 21:00:00 22.6 2 Sur 9 Norte 0 -- -- 68
2019-08-15 20:00:00 24.8 4 Norte 11 Noroeste 0 -- -- 63
2019-08-15 19:00:00 26.6 7 Noroeste 15 Norte 0 -- -- 56
2019-08-15 18:00:00 24.4 5 Sudeste 14 Noroeste 0 -- -- 55
2019-08-15 17:00:00 25.4 8 Noroeste 17 Noroeste 0 -- -- 51
2019-08-15 16:00:00 25.4 8 Noroeste 16 Noroeste 0 -- -- 54
2019-08-15 15:00:00 25.9 6 Noroeste 15 Noroeste 0 -- -- 45
2019-08-15 14:00:00 24.5 7 Norte 14 Noroeste 0 -- -- 51
2019-08-15 13:00:00 24.2 7 Norte 12 Noroeste 0 -- -- 61
2019-08-15 12:00:00 22.9 7 Noroeste 15 Sudoeste 0 -- -- 61
2019-08-15 11:00:00 20.2 5 Oeste 19 Sudeste 0 -- -- 77
2019-08-15 10:00:00 19.7 6 Sudeste 14 Sudeste 0 -- -- 72
2019-08-15 09:00:00 21 2 Nordeste 11 Sudeste 0 -- -- 42
2019-08-15 08:00:00 20.9 4 Norte 5 Nordeste 0 -- -- 21
2019-08-15 07:00:00 21.2 0 Calma 15 Sudeste 0 -- -- 22
2019-08-15 06:00:00 20.3 11 Sudeste 19 Sudeste 0 -- -- 34
2019-08-15 05:00:00 19.4 3 Sur 5 Norte 0 -- -- 29
2019-08-15 04:00:00 18.6 4 Norte 5 Norte 0 -- -- 40
2019-08-15 03:00:00 19.6 2 Este 8 Sudeste 0 -- -- 38
2019-08-15 02:00:00 19.3 0 Calma 15 Sudeste 0 -- -- 42
2019-08-15 01:00:00 18.1 4 Sudeste 7 Sudeste 0 -- -- 73
2019-08-15 00:00:00 18.1 3 Nordeste 7 Norte 0 -- -- 48
2019-08-14 23:00:00 19.3 5 Nordeste 10 Norte 0 -- -- 48
2019-08-14 22:00:00 19.6 5 Norte 20 Sudeste 0 -- -- 46
2019-08-14 21:00:00 18.7 5 Este 13 Noroeste 0 -- -- 87
2019-08-14 20:00:00 19.5 8 Norte 20 Norte 0 -- -- 85
2019-08-14 19:00:00 22.4 12 Norte 19 Norte 0 -- -- 67
2019-08-14 18:00:00 21.5 4 Sur 17 Sudoeste 0 -- -- 71
2019-08-14 17:00:00 22.2 7 Sudoeste 15 Sur 0 -- -- 69
2019-08-14 16:00:00 22.3 6 Noroeste 25 Noroeste 0 -- -- 70
2019-08-14 15:00:00 20.7 16 Norte 29 Norte 0 -- -- 73
2019-08-14 14:00:00 21.9 7 Norte 20 Sudoeste 0 -- -- 69
2019-08-14 13:00:00 20.9 8 Sur 21 Oeste 0 -- -- 72
2019-08-14 12:00:00 22.2 4 Norte 18 Este 0 -- -- 66
2019-08-14 11:00:00 20.7 3 Norte 10 Norte 0 -- -- 64
2019-08-14 10:00:00 18.2 4 Noroeste 15 Sudeste 0 -- -- 69
2019-08-14 09:00:00 16.8 4 Nordeste 17 Sudeste 0 -- -- 84
2019-08-14 08:00:00 15.5 4 Norte 14 Norte 0 -- -- 90
2019-08-14 07:00:00 15.4 2 Norte 10 Norte 0 -- -- 86
2019-08-14 06:00:00 15.9 10 Norte 13 Norte 0 -- -- 83
2019-08-14 05:00:00 16.5 5 Nordeste 20 Sur 0 -- -- 78
2019-08-14 04:00:00 18.2 3 Sudeste 11 Nordeste 0 -- -- 56
2019-08-14 03:00:00 18.5 3 Noroeste 9 Sur 0 -- -- 53
2019-08-14 02:00:00 17.1 12 Norte 28 Norte 0 -- -- 75
2019-08-14 01:00:00 17 20 Norte 26 Norte 0 -- -- 88
2019-08-14 00:00:00 17.6 6 Norte 16 Norte 0 -- -- 81
2019-08-13 23:00:00 17 3 Nordeste 24 Noroeste 0 -- -- 91
2019-08-13 22:00:00 17.5 16 Norte 22 Norte 0 -- -- 86
2019-08-13 21:00:00 19.3 4 Nordeste 14 Nordeste 0 -- -- 82
2019-08-13 20:00:00 20.6 6 Sudoeste 17 Norte 0 -- -- 78
2019-08-13 19:00:00 22.3 14 Norte 24 Norte 0 -- -- 74
2019-08-13 18:00:00 21.6 5 Sur 17 Sudeste 0 -- -- 76
2019-08-13 17:00:00 22.3 6 Sudoeste 15 Noroeste 0 -- -- 74
2019-08-13 16:00:00 23 8 Noroeste 21 Sur 0 -- -- 73
2019-08-13 15:00:00 22 8 Sudoeste 22 Sudeste 0 -- -- 74
2019-08-13 14:00:00 22.9 8 Sudoeste 21 Oeste 0 -- -- 68
2019-08-13 13:00:00 23.6 5 Noroeste 14 Sudoeste 0 -- -- 67
2019-08-13 12:00:00 21.3 6 Sudoeste 26 Sudeste 0 -- -- 75
2019-08-13 11:00:00 20.4 7 Sudoeste 19 Sudoeste 0 -- -- 76
2019-08-13 10:00:00 20.8 4 Sur 10 Sudoeste 0 -- -- 67
2019-08-13 09:00:00 19.7 2 Norte 6 Nordeste 0 -- -- 58
2019-08-13 08:00:00 19.2 3 Este 13 Sudeste 0 -- -- 57
2019-08-13 07:00:00 19.9 3 Este 16 Nordeste 0 -- -- 56
2019-08-13 06:00:00 19.1 12 Nordeste 17 Norte 0 -- -- 55
2019-08-13 05:00:00 18 8 Norte 11 Norte 0 -- -- 69
2019-08-13 04:00:00 17.5 5 Sudeste 13 Sudeste 0 -- -- 87
2019-08-13 03:00:00 18.4 5 Nordeste 18 Nordeste 0 -- -- 71
2019-08-13 02:00:00 18.7 12 Norte 14 Norte 0 -- -- 66
2019-08-13 01:00:00 18.9 2 Nordeste 20 Sudeste 0 -- -- 73
2019-08-13 00:00:00 18.9 4 Este 14 Sudeste 0 -- -- 85
2019-08-12 23:00:00 18.9 7 Norte 17 Norte 0 -- -- 83
2019-08-12 22:00:00 19.9 6 Norte 12 Sudeste 0 -- -- 85
2019-08-12 21:00:00 19.7 5 Sudeste 14 Este 0 -- -- 86
2019-08-12 20:00:00 22.2 4 Este 14 Norte 0 -- -- 72
2019-08-12 19:00:00 24.6 7 Noroeste 18 Noroeste 0 -- -- 61
2019-08-12 18:00:00 23 3 Sudeste 17 Sur 0 -- -- 69
2019-08-12 17:00:00 23.6 4 Este 18 Este 0 -- -- 71
2019-08-12 16:00:00 24.7 7 Oeste 18 Sudoeste 0 -- -- 65
2019-08-12 15:00:00 24 5 Noroeste 19 Sudeste 0 -- -- 70
2019-08-12 14:00:00 22.9 7 Nordeste 24 Sur 0 -- -- 73
2019-08-12 13:00:00 25.6 6 Norte 18 Sur 0 -- -- 60
2019-08-12 12:00:00 23.3 5 Sudoeste 13 Sur 0 -- -- 67
2019-08-12 11:00:00 21 5 Oeste 17 Sudeste 0 -- -- 79
2019-08-12 10:00:00 20.3 5 Sur 15 Sur 0 -- -- 78
2019-08-12 09:00:00 19.3 4 Sur 14 Sur 0 -- -- 80
2019-08-12 08:00:00 17.7 6 Sudeste 16 Sur 0 -- -- 93
2019-08-12 07:00:00 18.8 5 Norte 10 Sudoeste 0 -- -- 61
2019-08-12 06:00:00 19.5 4 Sur 8 Nordeste 0 -- -- 62
2019-08-12 05:00:00 19.1 8 Nordeste 12 Norte 0 -- -- 58
2019-08-12 04:00:00 18.9 10 Norte 14 Noroeste 0 -- -- 72
2019-08-12 03:00:00 19.4 9 Nordeste 15 Norte 0 -- -- 61
2019-08-12 02:00:00 20 9 Nordeste 18 Nordeste 0 -- -- 64
2019-08-12 01:00:00 19.2 6 Noroeste 12 Nordeste 0 -- -- 77
2019-08-12 00:00:00 18.4 4 Sudeste 12 Sudeste 0 -- -- 94
2019-08-11 23:00:00 18.8 4 Nordeste 12 Norte 0 -- -- 92
2019-08-11 22:00:00 18.9 8 Norte 12 Norte 0 -- -- 92
2019-08-11 21:00:00 20.6 0 Calma 19 Este 0 -- -- 83
2019-08-11 20:00:00 22.3 5 Nordeste 17 Sudoeste 0 -- -- 77
2019-08-11 19:00:00 20.9 10 Noroeste 24 Norte 0 -- -- 84
2019-08-11 18:00:00 23.9 13 Noroeste 22 Norte 0 -- -- 68
2019-08-11 17:00:00 25.6 5 Oeste 18 Oeste 0 -- -- 61
2019-08-11 16:00:00 26.6 6 Nordeste 21 Oeste 0 -- -- 60
2019-08-11 15:00:00 23.5 10 Noroeste 17 Noroeste 0 -- -- 73
2019-08-11 14:00:00 24 7 Norte 20 Sur 0 -- -- 72
2019-08-11 13:00:00 23.8 5 Noroeste 17 Sudoeste 0 -- -- 75
2019-08-11 12:00:00 23.3 4 Norte 13 Nordeste 0 -- -- 74
2019-08-11 11:00:00 22.1 4 Norte 11 Oeste 0 -- -- 77
2019-08-11 10:00:00 21.3 3 Norte 9 Este 0 -- -- 74
2019-08-11 09:00:00 20.2 3 Nordeste 13 Norte 0 -- -- 67
2019-08-11 08:00:00 18.8 12 Norte 14 Nordeste 0 -- -- 74
2019-08-11 07:00:00 18.8 6 Norte 9 Sudeste 0 -- -- 77
2019-08-11 06:00:00 18.7 3 Norte 15 Nordeste 0 -- -- 78
2019-08-11 05:00:00 19.3 7 Noroeste 15 Norte 0 -- -- 75
2019-08-11 04:00:00 18.8 4 Norte 9 Norte 0 -- -- 80
2019-08-11 03:00:00 19.8 4 Nordeste 10 Sudeste 0 -- -- 72
2019-08-11 02:00:00 20.4 4 Norte 14 Sudeste 0 -- -- 69
2019-08-11 01:00:00 20.8 3 Norte 8 Norte 0 -- -- 57
2019-08-11 00:00:00 19.7 5 Sudeste 9 Sudeste 0 -- -- 91
2019-08-10 23:00:00 20.4 4 Sudeste 7 Sudeste 0 -- -- 88
2019-08-10 22:00:00 21.7 2 Norte 16 Sudeste 0 -- -- 48
2019-08-10 21:00:00 20.4 6 Sudeste 14 Sudeste 0 -- -- 91
2019-08-10 20:00:00 22.8 3 Sudeste 19 Norte 0 -- -- 81
2019-08-10 19:00:00 21.7 12 Norte 22 Noroeste 0 -- -- 85
2019-08-10 18:00:00 24.5 11 Norte 21 Oeste 0 -- -- 74
2019-08-10 17:00:00 25.3 6 Este 18 Nordeste 0 -- -- 69
2019-08-10 16:00:00 24.1 6 Sudoeste 17 Este 0 -- -- 72
2019-08-10 15:00:00 24.4 7 Oeste 16 Oeste 0 -- -- 67
2019-08-10 14:00:00 25.6 6 Noroeste 14 Norte 0 -- -- 64
2019-08-10 13:00:00 24.7 6 Norte 13 Norte 0 -- -- 71
2019-08-10 12:00:00 23.5 4 Sur 14 Noroeste 0 -- -- 70
2019-08-10 11:00:00 22.7 6 Nordeste 23 Sur 0 -- -- 68
2019-08-10 10:00:00 24 4 Norte 13 Este 0 -- -- 52
2019-08-10 09:00:00 23.6 3 Nordeste 7 Sur 0 -- -- 29
2019-08-10 08:00:00 22.3 4 Sudeste 6 Sudeste 0 -- -- 30
2019-08-10 07:00:00 22.7 2 Norte 10 Sudeste 0 -- -- 35
2019-08-10 06:00:00 22.5 3 Sur 9 Sur 0 -- -- 45
2019-08-10 05:00:00 22.7 2 Oeste 6 Sur 0 -- -- 37
2019-08-10 04:00:00 23.1 3 Sudeste 8 Sudeste 0 -- -- 32
2019-08-10 03:00:00 22.5 3 Sur 6 Noroeste 0 -- -- 21
2019-08-10 02:00:00 22.4 0 Calma 8 Sur 0 -- -- 30
2019-08-10 01:00:00 22.5 2 Sur 8 Sudeste 0 -- -- 54
2019-08-10 00:00:00 22.2 0 Calma 5 Nordeste 0 -- -- 47
2019-08-09 23:00:00 21.5 0 Calma 8 Sudeste 0 -- -- 42
2019-08-09 22:00:00 20.4 5 Sudeste 8 Sudeste 0 -- -- 87
2019-08-09 21:00:00 21.4 4 Sudeste 8 Sudeste 0 -- -- 83
2019-08-09 20:00:00 24.4 2 Norte 14 Norte 0 -- -- 72
2019-08-09 19:00:00 23.7 5 Norte 15 Noroeste 0 -- -- 74
2019-08-09 18:00:00 24 7 Noroeste 16 Este 0 -- -- 72
2019-08-09 17:00:00 24 5 Este 11 Sudoeste 0 -- -- 71
2019-08-09 16:00:00 25 5 Este 18 Norte 0 -- -- 66
2019-08-09 15:00:00 25.1 4 Nordeste 16 Sur 0 -- -- 64
2019-08-09 14:00:00 24.3 5 Oeste 14 Sudeste 0 -- -- 66
2019-08-09 13:00:00 26.1 5 Norte 12 Noroeste 0 -- -- 60
2019-08-09 12:00:00 27.5 3 Norte 9 Sudeste 0 -- -- 51
2019-08-09 11:00:00 27.3 4 Nordeste 9 Sudeste 0 -- -- 36
2019-08-09 10:00:00 24.9 2 Nordeste 8 Este 0 -- -- 18
2019-08-09 09:00:00 22.5 3 Sudeste 9 Norte 0 -- -- 20
2019-08-09 08:00:00 20.8 3 Nordeste 7 Este 0 -- -- 22
2019-08-09 07:00:00 21.3 3 Nordeste 16 Sudeste 0 -- -- 26
2019-08-09 06:00:00 21.1 3 Sudeste 12 Sudeste 0 -- -- 31
2019-08-09 05:00:00 21.5 0 Calma 11 Sudeste 0 -- -- 32
2019-08-09 04:00:00 21.2 6 Sudeste 10 Sudeste 0 -- -- 47
2019-08-09 03:00:00 21 4 Nordeste 10 Nordeste 0 -- -- 25
2019-08-09 02:00:00 21 8 Nordeste 9 Nordeste 0 -- -- 24
2019-08-09 01:00:00 21 3 Norte 7 Sudeste 0 -- -- 31
2019-08-09 00:00:00 21.9 3 Noroeste 9 Este 0 -- -- 31
2019-08-08 23:00:00 22.1 4 Nordeste 12 Nordeste 0 -- -- 23
2019-08-08 22:00:00 19.9 5 Norte 6 Norte 0 -- -- 82
2019-08-08 21:00:00 20.5 4 Sudeste 10 Norte 0 -- -- 81
2019-08-08 20:00:00 23.8 3 Nordeste 11 Noroeste 0 -- -- 69
2019-08-08 19:00:00 23.9 4 Norte 14 Sur 0 -- -- 69
2019-08-08 18:00:00 22 6 Nordeste 18 Sudeste 0 -- -- 76
2019-08-08 17:00:00 22.3 5 Sur 17 Sur 0 -- -- 73
2019-08-08 16:00:00 23.7 6 Sudoeste 16 Noroeste 0 -- -- 65
2019-08-08 15:00:00 23.9 6 Oeste 14 Oeste 0 -- -- 65
2019-08-08 14:00:00 24.8 6 Norte 14 Oeste 0 -- -- 60
2019-08-08 13:00:00 23.9 4 Norte 9 Nordeste 0 -- -- 65
2019-08-08 12:00:00 22.2 4 Norte 9 Oeste 0 -- -- 73
2019-08-08 11:00:00 20.9 3 Norte 8 Noroeste 0 -- -- 75
2019-08-08 10:00:00 18.1 2 Nordeste 12 Norte 0 -- -- 87
2019-08-08 09:00:00 15.9 10 Nordeste 15 Norte 0 -- -- 94
2019-08-08 08:00:00 15.4 4 Norte 12 Sur 0 -- -- 93
2019-08-08 07:00:00 16.3 6 Sur 15 Sudeste 0 -- -- 93
2019-08-08 06:00:00 17 10 Sudeste 13 Sudeste 0 -- -- 85
2019-08-08 05:00:00 16.2 8 Sur 13 Sur 0 -- -- 97
2019-08-08 04:00:00 15.8 3 Este 12 Nordeste 0 -- -- 97
2019-08-08 03:00:00 16.2 6 Norte 10 Norte 0 -- -- 95
2019-08-08 02:00:00 17.3 4 Norte 8 Noroeste 0 -- -- 94
2019-08-08 01:00:00 17.7 2 Norte 4 Nordeste 0 -- -- 95
2019-08-08 00:00:00 17.8 2 Nordeste 10 Sur 0 -- -- 95
2019-08-07 23:00:00 18.2 0 Calma 6 Oeste 0 -- -- 94
2019-08-07 22:00:00 18.1 3 Norte 9 Nordeste 0 -- -- 96
2019-08-07 21:00:00 18.2 8 Norte 13 Norte 0 -- -- 96
2019-08-07 20:00:00 18.7 9 Norte 14 Norte 0 -- -- 93
2019-08-07 19:00:00 19.9 6 Noroeste 12 Sudoeste 0 -- -- 87
2019-08-07 18:00:00 21.8 5 Sudoeste 23 Sudoeste 0 -- -- 78
2019-08-07 17:00:00 22.3 6 Oeste 18 Oeste 0 -- -- 74
2019-08-07 16:00:00 23 5 Norte 18 Este 0 -- -- 71
2019-08-07 15:00:00 23 6 Noroeste 19 Sudoeste 0 -- -- 68
2019-08-07 14:00:00 22.1 7 Noroeste 20 Noroeste 0 -- -- 70
2019-08-07 13:00:00 22.5 8 Norte 17 Norte 0 -- -- 67
2019-08-07 12:00:00 21.1 6 Noroeste 15 Noroeste 0 -- -- 74
2019-08-07 11:00:00 20.3 4 Noroeste 10 Norte 0 -- -- 75
2019-08-07 10:00:00 18.5 3 Norte 10 Nordeste 0 -- -- 77
2019-08-07 09:00:00 16.5 6 Norte 20 Norte 0 -- -- 87
2019-08-07 08:00:00 15.5 18 Norte 26 Nordeste 0 -- -- 89
2019-08-07 07:00:00 15.2 3 Este 10 Norte 0 -- -- 93
2019-08-07 06:00:00 15.5 5 Noroeste 20 Norte 0 -- -- 93
2019-08-07 05:00:00 15.8 2 Nordeste 12 Sudeste 0 -- -- 89
2019-08-07 04:00:00 15.8 7 Norte 10 Norte 0 -- -- 92
2019-08-07 03:00:00 16.2 2 Noroeste 13 Norte 0 -- -- 92
2019-08-07 02:00:00 16.5 5 Nordeste 17 Nordeste 0 -- -- 89
2019-08-07 01:00:00 16.6 3 Norte 5 Sudoeste 0 -- -- 91
2019-08-07 00:00:00 17.3 0 Calma 10 Sudeste 0 -- -- 86
2019-08-06 23:00:00 17.8 4 Sudeste 14 Sur 0 -- -- 83
2019-08-06 22:00:00 18.1 2 Nordeste 7 Sudoeste 0 -- -- 89
2019-08-06 21:00:00 18.2 0 Calma 9 Noroeste 0 -- -- 87
2019-08-06 20:00:00 18.4 5 Noroeste 9 Noroeste 0 -- -- 89
2019-08-06 19:00:00 19.2 2 Norte 8 Norte 0 -- -- 88
2019-08-06 18:00:00 19.8 3 Norte 14 Noroeste 0 -- -- 86
2019-08-06 17:00:00 20 4 Norte 15 Norte 0 -- -- 84
2019-08-06 16:00:00 21.8 7 Noroeste 18 Noroeste 0 -- -- 74
2019-08-06 15:00:00 20.4 3 Norte 12 Norte 0 -- -- 80
2019-08-06 14:00:00 20.1 4 Nordeste 15 Noroeste 0 -- -- 83
2019-08-06 13:00:00 21.1 5 Norte 17 Noroeste 0 -- -- 80
2019-08-06 12:00:00 19.5 3 Norte 13 Noroeste 0 -- -- 87
2019-08-06 11:00:00 19.6 4 Noroeste 11 Norte 0 -- -- 85
2019-08-06 10:00:00 18.5 3 Norte 11 Sudeste 0 -- -- 82
2019-08-06 09:00:00 17.3 2 Sudeste 8 Nordeste 0 -- -- 91
2019-08-06 08:00:00 16.1 0 Calma 9 Norte 0 -- -- 95
2019-08-06 07:00:00 16.3 0 Calma 9 Norte 0 -- -- 89
2019-08-06 06:00:00 16.3 6 Norte 18 Norte 0 -- -- 86
2019-08-06 05:00:00 16.5 9 Norte 14 Norte 0 -- -- 95
2019-08-06 04:00:00 16.8 0 Calma 17 Norte 0 -- -- 92
2019-08-06 03:00:00 17.3 9 Sudeste 14 Sudeste 0 -- -- 97
2019-08-06 02:00:00 17.9 3 Oeste 10 Oeste 0 -- -- 95
2019-08-06 01:00:00 17.7 0 Calma 7 Norte 0 -- -- 93
2019-08-06 00:00:00 17.8 3 Norte 5 Norte 0 -- -- 93
2019-08-05 23:00:00 18.5 3 Norte 9 Sudeste 0 -- -- 89
2019-08-05 22:00:00 18.9 3 Nordeste 8 Sudeste 0 -- -- 92
2019-08-05 21:00:00 20.4 0 Calma 13 Norte 0 -- -- 86
2019-08-05 20:00:00 21.8 6 Noroeste 16 Noroeste 0 -- -- 75
2019-08-05 19:00:00 21.3 5 Sur 16 Sudoeste 0 -- -- 81
2019-08-05 18:00:00 22.4 5 Norte 18 Sudeste 0 -- -- 75
2019-08-05 17:00:00 23.8 5 Norte 21 Oeste 0 -- -- 69
2019-08-05 16:00:00 24 8 Norte 21 Nordeste 0 -- -- 63
2019-08-05 15:00:00 23.2 7 Noroeste 19 Sudoeste 0 -- -- 61
2019-08-05 14:00:00 23.9 4 Norte 21 Sudoeste 0 -- -- 61
2019-08-05 13:00:00 22.5 5 Noroeste 20 Noroeste 0 -- -- 67
2019-08-05 12:00:00 21.4 4 Norte 14 Este 0 -- -- 72
2019-08-05 11:00:00 20.3 4 Norte 15 Sudoeste 0 -- -- 79
2019-08-05 10:00:00 18.7 3 Norte 10 Norte 0 -- -- 79
2019-08-05 09:00:00 17 4 Nordeste 10 Sudeste 0 -- -- 92
2019-08-05 08:00:00 16 3 Norte 7 Norte 0 -- -- 87
2019-08-05 07:00:00 15.8 0 Calma 7 Sudeste 0 -- -- 87
2019-08-05 06:00:00 15.9 2 Norte 8 Norte 0 -- -- 90
2019-08-05 05:00:00 16.3 4 Nordeste 9 Nordeste 0 -- -- 86
2019-08-05 04:00:00 16 0 Calma 5 Noroeste 0 -- -- 93
2019-08-05 03:00:00 16.4 3 Norte 6 Nordeste 0 -- -- 94
2019-08-05 02:00:00 16.6 0 Calma 8 Sudeste 0 -- -- 94
2019-08-05 01:00:00 16.6 0 Calma 3 Sudeste 0 -- -- 90
2019-08-05 00:00:00 16.9 4 Norte 6 Noroeste 0 -- -- 87
2019-08-04 23:00:00 17.1 3 Norte 6 Sur 0 -- -- 84
2019-08-04 22:00:00 17.6 5 Sudeste 10 Sudeste 0 -- -- 82
2019-08-04 21:00:00 19 2 Sur 10 Noroeste 0 -- -- 76
2019-08-04 20:00:00 21.7 7 Norte 21 Noroeste 0 -- -- 65
2019-08-04 19:00:00 22.2 9 Noroeste 22 Noroeste 0 -- -- 62
2019-08-04 18:00:00 22.9 6 Norte 24 Norte 0 -- -- 62
2019-08-04 17:00:00 22.5 5 Oeste 21 Noroeste 0 -- -- 67
2019-08-04 16:00:00 21.7 8 Noroeste 21 Norte 0 -- -- 72
2019-08-04 15:00:00 20.2 8 Noroeste 17 Norte 0 -- -- 77
2019-08-04 14:00:00 20.1 5 Norte 17 Noroeste 0 -- -- 79
2019-08-04 13:00:00 20.7 5 Noroeste 17 Sudoeste 0 -- -- 76
2019-08-04 12:00:00 20.9 6 Nordeste 17 Norte 0 -- -- 77
2019-08-04 11:00:00 19.9 6 Norte 17 Nordeste 0 -- -- 73
2019-08-04 10:00:00 18.3 3 Norte 9 Este 0 -- -- 78
2019-08-04 09:00:00 16.4 4 Norte 10 Este 0 -- -- 88
2019-08-04 08:00:00 15.2 4 Norte 12 Este 0 -- -- 95
2019-08-04 07:00:00 15.6 9 Sudeste 13 Sudeste 0 -- -- 91
2019-08-04 06:00:00 15.3 6 Nordeste 10 Nordeste 0 -- -- 89
2019-08-04 05:00:00 15.5 3 Norte 11 Nordeste 0 -- -- 92
2019-08-04 04:00:00 16.1 4 Norte 8 Norte 0 -- -- 94
2019-08-04 03:00:00 16.3 3 Este 10 Noroeste 0 -- -- 88
2019-08-04 02:00:00 16.8 0 Calma 9 Nordeste 0 -- -- 93
2019-08-04 01:00:00 17 3 Oeste 11 Sudoeste 0 -- -- 94
2019-08-04 00:00:00 17.3 2 Norte 8 Sudoeste 0 -- -- 93
2019-08-03 23:00:00 17.4 3 Oeste 7 Sudeste 0 -- -- 91
2019-08-03 22:00:00 17.6 3 Sur 11 Nordeste 0 -- -- 88
2019-08-03 21:00:00 18.9 2 Nordeste 10 Sur 0 -- -- 83
2019-08-03 20:00:00 20.5 5 Sudoeste 15 Noroeste 0 -- -- 77
2019-08-03 19:00:00 21.1 11 Norte 21 Noroeste 0 -- -- 73
2019-08-03 18:00:00 21.4 5 Oeste 14 Oeste 0 -- -- 71
2019-08-03 17:00:00 21.7 5 Norte 27 Sudoeste 0 -- -- 70
2019-08-03 16:00:00 21.4 9 Sudoeste 21 Sudoeste 0 -- -- 73
2019-08-03 15:00:00 20.6 8 Noroeste 18 Noroeste 0 -- -- 77
2019-08-03 14:00:00 19.7 11 Noroeste 21 Noroeste 0 -- -- 80
2019-08-03 13:00:00 20.1 10 Noroeste 19 Noroeste 0 -- -- 79
2019-08-03 12:00:00 19.9 6 Oeste 18 Sudoeste 0 -- -- 80
2019-08-03 11:00:00 19.3 5 Norte 22 Este 0 -- -- 81
2019-08-03 10:00:00 17.2 3 Noroeste 22 Norte 0 -- -- 89
2019-08-03 09:00:00 15.7 14 Norte 18 Norte 0 -- -- 94
2019-08-03 08:00:00 15.2 5 Nordeste 14 Norte 0 -- -- 95
2019-08-03 07:00:00 15.4 6 Norte 15 Norte 0 -- -- 97
2019-08-03 06:00:00 15.1 3 Norte 18 Nordeste 0 -- -- 93
2019-08-03 05:00:00 15.4 16 Norte 23 Norte 0 -- -- 90
2019-08-03 04:00:00 15.3 13 Norte 17 Norte 0 -- -- 90
2019-08-03 03:00:00 15.7 4 Sudeste 17 Sudeste 0 -- -- 96
2019-08-03 02:00:00 16.2 3 Nordeste 10 Norte 0 -- -- 96
2019-08-03 01:00:00 16.1 11 Nordeste 20 Nordeste 0 -- -- 90
2019-08-03 00:00:00 16.2 8 Norte 10 Norte 0 -- -- 93
2019-08-02 23:00:00 16.6 3 Sudeste 12 Sudeste 0 -- -- 93
2019-08-02 22:00:00 17.5 5 Nordeste 11 Sur 0 -- -- 89
2019-08-02 21:00:00 18 4 Oeste 14 Noroeste 0 -- -- 88
2019-08-02 20:00:00 20.9 8 Noroeste 19 Oeste 0 -- -- 72
2019-08-02 19:00:00 20.1 4 Sur 15 Sudeste 0 -- -- 75
2019-08-02 18:00:00 21.6 4 Nordeste 18 Oeste 0 -- -- 72
2019-08-02 17:00:00 18.6 6 Noroeste 24 Norte 0 -- -- 86
2019-08-02 16:00:00 18.7 17 Norte 32 Norte 0 -- -- 84
2019-08-02 15:00:00 19.8 17 Norte 25 Noroeste 0 -- -- 80
2019-08-02 14:00:00 22 7 Norte 18 Sudoeste 0 -- -- 72
2019-08-02 13:00:00 22.1 5 Norte 18 Sudoeste 0 -- -- 65
2019-08-02 12:00:00 20.8 6 Nordeste 15 Norte 0 -- -- 70
2019-08-02 11:00:00 18.4 8 Norte 23 Norte 0 -- -- 79
2019-08-02 10:00:00 17.5 16 Norte 30 Norte 0 -- -- 83
2019-08-02 09:00:00 16.2 22 Norte 28 Norte 0 -- -- 89
2019-08-02 08:00:00 15.2 5 Norte 14 Norte 0 -- -- 95
2019-08-02 07:00:00 15 6 Norte 15 Noroeste 0 -- -- 96
2019-08-02 06:00:00 14.8 7 Norte 25 Nordeste 0 -- -- 93
2019-08-02 05:00:00 15.2 24 Nordeste 30 Norte 0 -- -- 93
2019-08-02 04:00:00 15 12 Norte 16 Nordeste 0 -- -- 81
2019-08-02 03:00:00 15.6 6 Sudeste 13 Sur 0 -- -- 95
2019-08-02 02:00:00 15.7 0 Calma 6 Sudeste 0 -- -- 93
2019-08-02 01:00:00 15.8 0 Calma 14 Norte 0 -- -- 91
2019-08-02 00:00:00 16.3 8 Nordeste 10 Nordeste 0 -- -- 90
2019-08-01 23:00:00 17 2 Norte 12 Nordeste 0 -- -- 90
2019-08-01 22:00:00 17.6 3 Norte 16 Sudoeste 0 -- -- 89
2019-08-01 21:00:00 17.8 2 Norte 23 Noroeste 0 -- -- 86
2019-08-01 20:00:00 18.6 15 Norte 22 Norte 0 -- -- 80
2019-08-01 19:00:00 21.3 10 Noroeste 18 Noroeste 0 -- -- 69
2019-08-01 18:00:00 21.1 5 Oeste 18 Sudoeste 0 -- -- 69
2019-08-01 17:00:00 23.7 6 Norte 19 Oeste 0 -- -- 60
2019-08-01 16:00:00 23.4 7 Norte 23 Sudoeste 0 -- -- 61
2019-08-01 15:00:00 21.9 7 Noroeste 21 Noroeste 0 -- -- 66
2019-08-01 14:00:00 20.3 14 Norte 26 Norte 0 -- -- 71
2019-08-01 13:00:00 18.8 12 Noroeste 22 Noroeste 0 -- -- 78
2019-08-01 12:00:00 20.4 5 Noroeste 19 Sudoeste 0 -- -- 70
2019-08-01 11:00:00 18.8 3 Noroeste 22 Norte 0 -- -- 76
2019-08-01 10:00:00 17.4 6 Noroeste 13 Norte 0 -- -- 79
2019-08-01 09:00:00 15.8 3 Nordeste 23 Norte 0 -- -- 83
2019-08-01 08:00:00 14.4 20 Norte 24 Norte 0 -- -- 85
2019-08-01 07:00:00 14.4 5 Norte 13 Sudeste 0 -- -- 94
2019-08-01 06:00:00 14.3 6 Norte 16 Este 0 -- -- 89
2019-08-01 05:00:00 14.8 6 Norte 22 Norte 0 -- -- 83
2019-08-01 04:00:00 14.7 6 Nordeste 17 Nordeste 0 -- -- 92
2019-08-01 03:00:00 15.1 3 Noroeste 10 Nordeste 0 -- -- 93
2019-08-01 02:00:00 15.6 0 Calma 11 Nordeste 0 -- -- 93
2019-08-01 01:00:00 15.5 8 Nordeste 11 Nordeste 0 -- -- 90
2019-08-01 00:00:00 16.2 3 Nordeste 5 Noroeste 0 -- -- 89
2019-07-31 23:00:00 16.8 2 Nordeste 5 Nordeste 0 -- -- 88
2019-07-31 22:00:00 17 3 Norte 10 Noroeste 0 -- -- 86
2019-07-31 21:00:00 17.5 2 Sudoeste 10 Oeste 0 -- -- 82
2019-07-31 20:00:00 18.3 4 Sudoeste 12 Oeste 0 -- -- 80
2019-07-31 19:00:00 19 6 Noroeste 15 Noroeste 0 -- -- 77
2019-07-31 18:00:00 21.1 6 Noroeste 19 Noroeste 0 -- -- 67
2019-07-31 17:00:00 21.3 6 Oeste 17 Noroeste 0 -- -- 66
2019-07-31 16:00:00 20.2 5 Noroeste 21 Noroeste 0 -- -- 72
2019-07-31 15:00:00 19.6 12 Noroeste 21 Noroeste 0 -- -- 74
2019-07-31 14:00:00 20.7 6 Sudoeste 16 Oeste 0 -- -- 68
2019-07-31 13:00:00 21.6 8 Noroeste 21 Sudoeste 0 -- -- 66
2019-07-31 12:00:00 19.7 3 Norte 14 Noroeste 0 -- -- 68
2019-07-31 11:00:00 17.5 6 Noroeste 13 Noroeste 0 -- -- 79
2019-07-31 10:00:00 17.3 4 Norte 13 Sudoeste 0 -- -- 81
2019-07-31 09:00:00 15.8 3 Norte 15 Nordeste 0 -- -- 80
2019-07-31 08:00:00 14.6 9 Nordeste 12 Nordeste 0 -- -- 90
2019-07-31 07:00:00 14.6 2 Nordeste 28 Sudoeste 0 -- -- 88
2019-07-31 06:00:00 14.7 5 Norte 12 Norte 0 -- -- 84
2019-07-31 05:00:00 14.8 3 Norte 10 Norte 0 -- -- 79
2019-07-31 04:00:00 15 6 Noroeste 15 Noroeste 0 -- -- 81
2019-07-31 03:00:00 15.3 0 Calma 8 Este 0 -- -- 82
2019-07-31 02:00:00 15.6 2 Noroeste 11 Oeste 0 -- -- 79
2019-07-31 01:00:00 15.9 9 Oeste 21 Nordeste 0 -- -- 76
2019-07-31 00:00:00 16.3 0 Calma 15 Sudoeste 0 -- -- 86
2019-07-30 23:00:00 16.7 4 Norte 20 Nordeste 0 -- -- 84
2019-07-30 22:00:00 17.5 5 Norte 17 Nordeste 0 -- -- 83
2019-07-30 21:00:00 19.1 4 Nordeste 19 Sur 0 -- -- 68
2019-07-30 20:00:00 21.9 4 Nordeste 27 Este 0 -- -- 67
2019-07-30 19:00:00 21.7 6 Norte 19 Noroeste 0 -- -- 69
2019-07-30 18:00:00 19.9 7 Noroeste 22 Noroeste 0 -- -- 78
2019-07-30 17:00:00 22.7 4 Norte 15 Oeste 0 -- -- 66
2019-07-30 16:00:00 22.7 6 Noroeste 19 Sudoeste 0 -- -- 68
2019-07-30 15:00:00 20 3 Norte 19 Noroeste 0 -- -- 80
2019-07-30 14:00:00 21.1 6 Noroeste 18 Noroeste 0 -- -- 75
2019-07-30 13:00:00 23 9 Noroeste 21 Oeste 0 -- -- 70
2019-07-30 12:00:00 21.8 4 Norte 19 Nordeste 0 -- -- 75
2019-07-30 11:00:00 20.3 5 Noroeste 21 Nordeste 0 -- -- 75
2019-07-30 10:00:00 19.6 5 Nordeste 19 Nordeste 0 -- -- 76
2019-07-30 09:00:00 17.8 0 Calma 4 Norte 0 -- -- 81
2019-07-30 08:00:00 16.6 0 Calma 7 Oeste 0 -- -- 85
2019-07-30 07:00:00 16.3 2 Nordeste 9 Norte 0 -- -- 84
2019-07-30 06:00:00 16.7 4 Nordeste 13 Nordeste 0 -- -- 81
2019-07-30 05:00:00 16.5 9 Norte 12 Norte 0 -- -- 85
2019-07-30 04:00:00 16.8 5 Noroeste 10 Nordeste 0 -- -- 83
2019-07-30 03:00:00 16.8 8 Nordeste 12 Nordeste 0 -- -- 84
2019-07-30 02:00:00 17.1 2 Norte 12 Oeste 0 -- -- 85
2019-07-30 01:00:00 17.5 2 Norte 12 Nordeste 0 -- -- 80
2019-07-30 00:00:00 17.6 10 Nordeste 18 Nordeste 0 -- -- 79
2019-07-29 23:00:00 17.6 2 Sur 14 Sudeste 0 -- -- 83
2019-07-29 22:00:00 18.2 10 Sudoeste 19 Sudeste 0 -- -- 79
2019-07-29 21:00:00 20.3 6 Nordeste 18 Nordeste 0 -- -- 73
2019-07-29 20:00:00 20.5 12 Norte 19 Noroeste 0 -- -- 75
2019-07-29 19:00:00 21.9 9 Noroeste 20 Oeste 0 -- -- 67
2019-07-29 18:00:00 21.9 10 Sudoeste 23 Sudoeste 0 -- -- 69
2019-07-29 17:00:00 23.1 4 Noroeste 27 Norte 0 -- -- 64
2019-07-29 16:00:00 21.7 14 Noroeste 21 Noroeste 0 -- -- 69
2019-07-29 15:00:00 21.5 7 Sudoeste 29 Nordeste 0 -- -- 71
2019-07-29 14:00:00 21.6 6 Norte 29 Noroeste 0 -- -- 76
2019-07-29 13:00:00 19.3 23 Norte 32 Norte 0 -- -- 81
2019-07-29 12:00:00 19.9 7 Noroeste 25 Sur 0 -- -- 80
2019-07-29 11:00:00 18.9 6 Nordeste 17 Oeste 0 -- -- 87
2019-07-29 10:00:00 17.1 0 Calma 18 Norte 0 -- -- 99
2019-07-29 09:00:00 16.2 9 Norte 14 Nordeste 0 -- -- 99
2019-07-29 08:00:00 16.4 3 Noroeste 15 Sudoeste 0 -- -- 99
2019-07-29 07:00:00 16.6 3 Nordeste 21 Sudoeste 0 -- -- 99
2019-07-29 06:00:00 16.8 9 Norte 18 Nordeste 0.2 -- -- 99
2019-07-29 05:00:00 16.6 9 Norte 14 Nordeste 0 -- -- 99
2019-07-29 04:00:00 17.2 6 Oeste 13 Oeste 0 -- -- 98
2019-07-29 03:00:00 17.4 0 Calma 13 Norte 0.4 -- -- 98
2019-07-29 02:00:00 17.4 8 Norte 15 Norte 0 -- -- 98
2019-07-29 01:00:00 17.8 4 Noroeste 9 Norte 0.2 -- -- 98
2019-07-29 00:00:00 18.1 0 Calma 5 Oeste 0.2 -- -- 98
2019-07-28 23:00:00 18.2 0 Calma 8 Noroeste 0.2 -- -- 98
2019-07-28 22:00:00 18.1 6 Noroeste 17 Norte 0 -- -- 97
2019-07-28 21:00:00 18.4 13 Norte 17 Norte 0 -- -- 94
2019-07-28 20:00:00 20.2 2 Norte 14 Sur 0 -- -- 87
2019-07-28 19:00:00 22.5 5 Norte 17 Sudeste 0 -- -- 76
2019-07-28 18:00:00 21.4 4 Oeste 25 Noroeste 0 -- -- 79
2019-07-28 17:00:00 20.5 17 Norte 23 Norte 0 -- -- 82
2019-07-28 16:00:00 23.1 8 Noroeste 22 Noroeste 0 -- -- 70
2019-07-28 15:00:00 23.1 10 Sudoeste 24 Oeste 0 -- -- 70
2019-07-28 14:00:00 23.8 6 Norte 23 Norte 0 -- -- 66
2019-07-28 13:00:00 21.9 15 Norte 22 Norte 0 -- -- 70
2019-07-28 12:00:00 21.1 11 Norte 21 Norte 0 -- -- 73
2019-07-28 11:00:00 20.6 6 Norte 24 Este 0 -- -- 74
2019-07-28 10:00:00 19.1 9 Nordeste 30 Nordeste 0 -- -- 76
2019-07-28 09:00:00 17.2 18 Norte 24 Nordeste 0 -- -- 80
2019-07-28 08:00:00 16.8 10 Sudeste 20 Sudeste 0 -- -- 83
2019-07-28 07:00:00 16.6 6 Sudoeste 14 Este 0 -- -- 77
2019-07-28 06:00:00 18.1 10 Norte 15 Norte 0 -- -- 45
2019-07-28 05:00:00 19.2 5 Norte 9 Norte 0 -- -- 39
2019-07-28 04:00:00 18 8 Este 22 Sudeste 0 -- -- 60
2019-07-28 03:00:00 17.9 2 Norte 12 Norte 0 -- -- 65
2019-07-28 02:00:00 18.7 6 Norte 9 Norte 0 -- -- 53
2019-07-28 01:00:00 20 3 Nordeste 12 Este 0 -- -- 34
2019-07-28 00:00:00 16.4 8 Sudeste 15 Noroeste 0 -- -- 95
2019-07-27 23:00:00 17 2 Este 17 Nordeste 0 -- -- 81
2019-07-27 22:00:00 16.9 13 Norte 16 Nordeste 0 -- -- 91
2019-07-26 11:00:00 25.2 5 Norte 10 Norte 0 -- -- 52
2019-07-26 10:00:00 23.3 2 Nordeste 8 Sudeste 0 -- -- 56
2019-07-26 09:00:00 21.4 5 Nordeste 20 Sudeste 0 -- -- 55
2019-07-26 08:00:00 20.1 2 Sur 12 Nordeste 0 -- -- 58
2019-07-26 07:00:00 19.5 4 Sur 15 Nordeste 0 -- -- 62
2019-07-26 06:00:00 18.5 5 Norte 25 Sur 0 -- -- 76
2019-07-26 05:00:00 19.2 11 Este 28 Sudeste 0 -- -- 70
2019-07-26 04:00:00 21.2 4 Noroeste 14 Sudeste 0 -- -- 54
2019-07-26 03:00:00 20.5 0 Calma 7 Noroeste 0 -- -- 53
2019-07-26 02:00:00 21.8 4 Noroeste 15 Sudeste 0 -- -- 53
2019-07-26 01:00:00 20.6 17 Sudeste 23 Sudeste 0 -- -- 66
2019-07-26 00:00:00 20.4 3 Sudeste 7 Norte 0 -- -- 68
2019-07-25 23:00:00 19.9 3 Norte 9 Sudeste 0 -- -- 78
2019-07-25 22:00:00 21 2 Sudeste 9 Sudeste 0 -- -- 74
2019-07-25 21:00:00 22.7 0 Calma 13 Norte 0 -- -- 70
2019-07-25 20:00:00 22.6 9 Norte 17 Norte 0 -- -- 71
2019-07-25 19:00:00 25.7 6 Norte 13 Sudeste 0 -- -- 55
2019-07-25 18:00:00 25.7 6 Norte 15 Norte 0 -- -- 52
2019-07-25 17:00:00 25.9 5 Norte 19 Norte 0 -- -- 53
2019-07-25 16:00:00 25.1 7 Norte 13 Norte 0 -- -- 56
2019-07-25 15:00:00 23.9 6 Norte 15 Oeste 0 -- -- 57
2019-07-25 14:00:00 24.8 6 Norte 15 Oeste 0 -- -- 53
2019-07-25 13:00:00 24.5 5 Noroeste 15 Noroeste 0 -- -- 53
2019-07-25 12:00:00 24 3 Norte 10 Sudeste 0 -- -- 54
2019-07-25 11:00:00 21.8 4 Sudeste 12 Sudeste 0 -- -- 60
2019-07-25 10:00:00 21.7 4 Norte 13 Sudeste 0 -- -- 47
2019-07-25 09:00:00 20.5 4 Norte 8 Noroeste 0 -- -- 42
2019-07-25 08:00:00 19.3 2 Norte 8 Norte 0 -- -- 39
2019-07-25 07:00:00 18.9 3 Norte 6 Sur 0 -- -- 47
2019-07-25 06:00:00 18.6 3 Norte 9 Norte 0 -- -- 50
2019-07-25 05:00:00 18.5 3 Noroeste 13 Sudeste 0 -- -- 60
2019-07-25 04:00:00 19.9 5 Nordeste 10 Nordeste 0 -- -- 42
2019-07-25 03:00:00 18.4 4 Nordeste 6 Norte 0 -- -- 52
2019-07-25 02:00:00 17.9 3 Norte 8 Norte 0 -- -- 67
2019-07-25 01:00:00 17.6 4 Nordeste 11 Sur 0 -- -- 79
2019-07-25 00:00:00 18.1 3 Sur 12 Sudeste 0 -- -- 87
2019-07-24 23:00:00 19.5 0 Calma 12 Norte 0 -- -- 70
2019-07-24 22:00:00 19.8 5 Norte 7 Norte 0 -- -- 81
2019-07-24 21:00:00 22.4 3 Sudeste 9 Noroeste 0 -- -- 69
2019-07-24 20:00:00 22.1 4 Nordeste 15 Sudeste 0 -- -- 73
2019-07-24 19:00:00 22.8 5 Noroeste 16 Norte 0 -- -- 69
2019-07-24 18:00:00 23 8 Norte 17 Noroeste 0 -- -- 67
2019-07-24 17:00:00 24 9 Noroeste 16 Noroeste 0 -- -- 64
2019-07-24 16:00:00 23.8 10 Norte 21 Sur 0 -- -- 65
2019-07-24 15:00:00 22 9 Sudoeste 22 Sudoeste 0 -- -- 71
2019-07-24 14:00:00 23 4 Noroeste 15 Norte 0 -- -- 64
2019-07-24 13:00:00 22.9 5 Noroeste 15 Noroeste 0 -- -- 62
2019-07-24 12:00:00 22.2 7 Norte 15 Oeste 0 -- -- 58
2019-07-24 11:00:00 19.2 7 Sudoeste 19 Sudoeste 0 -- -- 80
2019-07-24 10:00:00 18.4 5 Nordeste 14 Este 0 -- -- 78
2019-07-24 09:00:00 18.1 5 Norte 22 Norte 0 -- -- 64
2019-07-24 08:00:00 18.1 15 Norte 18 Norte 0 -- -- 38
2019-07-24 07:00:00 16.7 5 Sudeste 19 Este 0 -- -- 48
2019-07-24 06:00:00 17.3 9 Sudeste 16 Sudeste 0 -- -- 77
2019-07-24 05:00:00 18 10 Norte 20 Norte 0 -- -- 54
2019-07-24 04:00:00 18.4 10 Norte 15 Sudeste 0 -- -- 49
2019-07-24 03:00:00 17.8 5 Sudeste 20 Sudeste 0 -- -- 51
2019-07-24 02:00:00 16.9 5 Sudoeste 16 Norte 0 -- -- 74
2019-07-24 01:00:00 18 13 Norte 18 Norte 0 -- -- 66
2019-07-24 00:00:00 18.6 7 Norte 18 Sudeste 0 -- -- 55
2019-07-23 23:00:00 16.3 6 Norte 15 Este 0 -- -- 93
2019-07-23 22:00:00 17.3 3 Norte 11 Norte 0 -- -- 87
2019-07-23 21:00:00 18.8 11 Norte 17 Norte 0 -- -- 82
2019-07-23 20:00:00 20.3 5 Sudeste 18 Sudeste 0 -- -- 73
2019-07-23 19:00:00 21.1 3 Sur 20 Norte 0 -- -- 69
2019-07-23 18:00:00 21.5 11 Noroeste 19 Noroeste 0 -- -- 68
2019-07-23 17:00:00 21.9 7 Sur 20 Sur 0 -- -- 67
2019-07-23 16:00:00 21.6 7 Sur 22 Sudeste 0 -- -- 66
2019-07-23 15:00:00 21.5 6 Noroeste 30 Noroeste 0 -- -- 68
2019-07-23 14:00:00 21.1 10 Norte 21 Noroeste 0 -- -- 69
2019-07-23 13:00:00 20.4 5 Sudoeste 24 Sur 0 -- -- 73
2019-07-23 12:00:00 20 8 Noroeste 24 Sudoeste 0 -- -- 74
2019-07-23 11:00:00 17.4 19 Norte 29 Norte 0 -- -- 86
2019-07-23 10:00:00 16.9 9 Norte 20 Sudeste 0 -- -- 82
2019-07-23 09:00:00 15.1 6 Nordeste 20 Este 0 -- -- 94
2019-07-23 08:00:00 14.3 8 Norte 17 Sudeste 0 -- -- 95
2019-07-23 07:00:00 14.9 14 Norte 17 Norte 0 -- -- 67
2019-07-23 06:00:00 16 7 Sudeste 21 Este 0 -- -- 86
2019-07-23 05:00:00 15.2 9 Sudeste 19 Sudeste 0 -- -- 83
2019-07-23 04:00:00 16.7 15 Norte 18 Nordeste 0 -- -- 70
2019-07-23 03:00:00 17.9 6 Norte 19 Sudeste 0 -- -- 54
2019-07-23 02:00:00 15 7 Nordeste 18 Sudeste 0 -- -- 94
2019-07-23 01:00:00 15.7 4 Nordeste 18 Nordeste 0 -- -- 90
2019-07-23 00:00:00 15.3 4 Norte 16 Sudeste 0 -- -- 94
2019-07-22 23:00:00 16.1 6 Sudeste 15 Sudeste 0 -- -- 93
2019-07-22 22:00:00 16.6 4 Nordeste 14 Noroeste 0 -- -- 89
2019-07-22 21:00:00 17.5 13 Norte 18 Norte 0 -- -- 86
2019-07-22 20:00:00 21.6 6 Norte 13 Este 0 -- -- 72
2019-07-22 19:00:00 21 5 Sudeste 15 Sur 0 -- -- 72
2019-07-22 18:00:00 21.1 12 Norte 21 Norte 0 -- -- 71
2019-07-22 17:00:00 21.9 8 Noroeste 18 Noroeste 0 -- -- 68
2019-07-22 16:00:00 21.2 6 Sur 17 Este 0 -- -- 70
2019-07-22 15:00:00 22.2 10 Sudoeste 23 Sudoeste 0 -- -- 66
2019-07-22 14:00:00 20.2 11 Norte 19 Noroeste 0 -- -- 73
2019-07-22 13:00:00 22.2 7 Noroeste 15 Nordeste 0 -- -- 66
2019-07-22 12:00:00 22.6 5 Este 17 Sudeste 0 -- -- 67
2019-07-22 11:00:00 19 8 Sudeste 21 Sudeste 0 -- -- 79
2019-07-22 10:00:00 18.9 3 Norte 18 Norte 0 -- -- 78
2019-07-22 09:00:00 18.5 4 Norte 18 Sudeste 0 -- -- 63
2019-07-22 08:00:00 20.4 10 Sudeste 22 Sudeste 0 -- -- 38
2019-07-22 07:00:00 15.1 7 Norte 31 Nordeste 0 -- -- 97
2019-07-22 06:00:00 15.7 20 Norte 24 Norte 0 -- -- 86
2019-07-22 05:00:00 16.9 5 Norte 15 Sudeste 0 -- -- 71
2019-07-22 04:00:00 15.9 7 Sur 16 Sudeste 0 -- -- 96
2019-07-22 03:00:00 16 8 Sur 21 Sudeste 0 -- -- 95
2019-07-22 02:00:00 16.5 14 Norte 18 Norte 0 -- -- 88
2019-07-22 01:00:00 16 6 Nordeste 13 Sur 0 -- -- 94
2019-07-22 00:00:00 16.8 4 Sudeste 17 Noroeste 0 -- -- 95
2019-07-21 23:00:00 17.4 4 Nordeste 16 Norte 0 -- -- 93
2019-07-21 22:00:00 17.2 12 Norte 14 Norte 0 -- -- 94
2019-07-21 21:00:00 18.8 9 Norte 15 Noroeste 0 -- -- 85
2019-07-21 20:00:00 22.6 8 Norte 15 Norte 0 -- -- 68
2019-07-21 19:00:00 21.4 7 Sudeste 16 Sudeste 0 -- -- 72
2019-07-21 18:00:00 23.2 4 Nordeste 28 Norte 0 -- -- 67
2019-07-21 17:00:00 20.8 21 Norte 35 Noroeste 0 -- -- 75
2019-07-21 16:00:00 20.8 21 Norte 29 Norte 0 -- -- 74
2019-07-21 15:00:00 20.1 7 Sur 20 Sur 0 -- -- 74
2019-07-21 14:00:00 21.5 6 Nordeste 27 Este 0 -- -- 71
2019-07-21 13:00:00 23.1 10 Nordeste 26 Nordeste 0 -- -- 63
2019-07-21 12:00:00 22.3 7 Nordeste 33 Norte 0 -- -- 65
2019-07-21 11:00:00 18 28 Norte 39 Norte 0 -- -- 83
2019-07-21 10:00:00 17 25 Norte 33 Norte 0 -- -- 87
2019-07-21 09:00:00 16.4 4 Sudoeste 16 Norte 0 -- -- 91
2019-07-21 08:00:00 15.1 6 Norte 16 Noroeste 0 -- -- 93
2019-07-21 07:00:00 15.4 8 Norte 30 Nordeste 0 -- -- 92
2019-07-21 06:00:00 16.1 29 Norte 49 Norte 0 -- -- 84
2019-07-21 05:00:00 15.4 34 Norte 38 Norte 0 -- -- 95
2019-07-21 04:00:00 15.6 3 Nordeste 17 Sudeste 0 -- -- 94
2019-07-21 03:00:00 16.2 9 Norte 21 Noroeste 0 -- -- 87
2019-07-21 02:00:00 16 7 Nordeste 41 Norte 0 -- -- 93
2019-07-21 01:00:00 16.2 21 Norte 31 Norte 0 -- -- 91
2019-07-21 00:00:00 16.5 7 Norte 24 Norte 0 -- -- 90